Zurück zum Katalog

CZ-4C DEB

AktivSSO
NORAD 38662·DEBRIS·🇨🇳 China

Gestartet May 29, 2012 von Taiyuan Satellite Launch Center

Loading…

Nächste Überflüge (nächste 24 Stunden)

TLE

AktuellSource: Space-Track

Epoche: Sep 14, 2026, 12:11 UTC

1 38662U 12029D   26257.50826605  .00000030  00000-0  17942-3 0  9992
2 38662 100.4896  13.7416 0131150 155.6296 205.1095 13.19612434685243

Verfolge CZ-4C DEB in Echtzeit mit AllMySat

Download on the App Store